Location: Riverside Cemetery
(38.3047°N, 99.7773°W)
Time: 17:28:27
(UTC+00:00)

Cosmos 1697 Rocket - Pass Details

Date: 19 September 2020
Orbit: 832 x 843 km, 71.0° (Epoch: 22 October)

Event Time Altitude Azimuth Distance (km) Brightness Sun altitude
Exits shadow 11:01:18 15° 302° (WNW) 2,139 4.4 -17.0°
Maximum altitude 11:01:54 15° 309° (NW) 2,126 4.5 -16.9°
Drops below altitude 10° 11:04:58 10° 343° (NNW) 2,448 5.1 -16.3°
Sets 11:08:37 0° 7° (N) 3,387 6.1 -15.6°
